📊 Raw Sensor Data

Showing records 44526 to 44550 of 85,038 total

ID Distance (ft) Battery V Battery A Int Temp (°F) Int Humid (%) Ext Temp (°F) Solar V RSSI SNR Time Stamp
40525 15.8 3.90 -5 56 43 57 0.00 -68 8 05/13/2025 11:15 PM
40524 15.9 3.96 -5 56 43 58 0.10 -68 8 05/13/2025 11:00 PM
40523 15.8 3.90 -5 57 44 58 0.00 -68 8 05/13/2025 10:45 PM
40522 15.8 3.96 -5 57 44 58 0.00 -69 8 05/13/2025 10:30 PM
40521 15.8 3.96 -5 58 44 59 0.10 -68 8 05/13/2025 10:15 PM
40520 15.8 3.90 -35 58 44 59 0.10 -68 8 05/13/2025 10:00 PM
40519 15.8 3.90 -5 58 45 59 0.00 -68 8 05/13/2025 09:45 PM
40518 15.8 3.91 -5 58 46 59 0.10 -69 8 05/13/2025 09:30 PM
40517 15.8 3.91 -5 59 47 59 0.00 -69 8 05/13/2025 09:15 PM
40516 15.8 3.91 -5 59 48 60 0.00 -69 9 05/13/2025 09:00 PM
40515 15.8 3.91 -5 60 49 61 0.00 -70 8 05/13/2025 08:45 PM
40514 15.8 3.91 -5 62 50 61 0.10 -69 8 05/13/2025 08:30 PM
40513 15.8 3.90 -9 64 51 62 2.80 -68 8 05/13/2025 08:15 PM
40512 15.8 3.91 0 68 51 64 4.50 -71 8 05/13/2025 08:00 PM
40511 15.8 3.99 0 71 50 66 4.50 -68 8 05/13/2025 07:45 PM
40510 15.9 3.93 6 74 49 69 4.60 -70 8 05/13/2025 07:30 PM
40509 15.9 4.01 9 76 48 70 4.50 -69 8 05/13/2025 07:15 PM
40508 15.8 4.02 0 78 48 71 4.50 -69 8 05/13/2025 07:00 PM
40507 15.9 4.00 35 80 47 73 4.50 -70 8 05/13/2025 06:45 PM
40506 15.9 4.03 0 80 46 72 5.10 -71 8 05/13/2025 06:30 PM
40505 15.9 3.96 0 81 45 74 5.10 -68 8 05/13/2025 06:15 PM
40504 15.9 3.96 0 81 45 73 5.10 -69 7 05/13/2025 06:00 PM
40503 15.8 3.96 0 81 46 73 5.10 -71 8 05/13/2025 05:45 PM
40502 15.8 3.99 0 83 44 74 5.10 -70 8 05/13/2025 05:30 PM
40501 15.8 3.96 0 83 43 74 5.10 -71 7 05/13/2025 05:15 PM